QUETZSAT 1

Last updated on Tue Jun 17 2025 00:02:45 GMT+0000 (Coordinated Universal Time)

1 37826U 11054A 25167.56089282 -.00000230 00000+0 00000+0 0 9992 2 37826 0.0147 329.9097 0003305 131.8770 288.2051 1.00270133 46202
UTC large
Height (km)
Speed (km/s)
/
Latitude / Longitude
Inclination (degrees)
Orbital Period (minutes)
Azimuth
Elevation
Range (km)
Doppler Factor

Next 0 passes for location: London (51.5072 / 0.1276)

Sorry there are no passes over London.